This demonstration page uses our WeatherBlox Daily Observations layout. Learn more.

Left ArrowRight Arrow

Hourly Observations for January 6, 2015

Temp ( °F °C ) Dew Point ( °F °C ) Humidity (%) Winds ( mph kmh ) Pressure ( in mb ) Visibility ( mi km ) Precip ( " mm )
12:16 am 00:16 Cloudy 16 -9 10 -12 79 79 Calm 30.39 1029 1 1.60934 N/A
12:35 am 00:35 Cloudy 16 -9 10 -12 79 79 Calm 30.39 1029 1 1.60934 N/A
12:55 am 00:55 Cloudy 16 -9 10 -12 79 79 Calm 30.39 1029 1 1.60934 N/A
1:15 am 01:15 Cloudy 16 -9 10 -12 79 79 N 3 6 30.39 1029 1 1.60934 N/A
1:35 am 01:35 Cloudy 16 -9 12 -11 86 86 N 5 7 30.39 1029 1 1.60934 N/A
1:55 am 01:55 Cloudy 16 -9 12 -11 86 86 NNE 3 6 30.36 1028 0.75 1.207005 N/A
2:15 am 02:15 Cloudy 14 -10 12 -11 92 92 E 3 6 30.36 1028 1 1.60934 N/A
2:35 am 02:35 Cloudy 14 -10 12 -11 92 92 ENE 5 7 30.36 1028 1 1.60934 N/A
2:55 am 02:55 Cloudy 16 -9 12 -11 86 86 NNE 6 9 30.36 1028 1.25 2.011675 N/A
3:15 am 03:15 Cloudy 14 -10 10 -12 85 85 NE 3 6 30.33 1027 2 3.21868 N/A
3:35 am 03:35 Cloudy 14 -10 10 -12 85 85 ENE 6 9 30.33 1027 1.25 2.011675 N/A
3:56 am 03:56 Cloudy 14 -10 10 -12 85 85 ENE 5 7 30.33 1027 2.5 4.02335 N/A
4:15 am 04:15 Mostly Cloudy 14 -10 9 -13 79 79 ENE 6 9 30.3 1026 5 8.0467 N/A
4:35 am 04:35 Partly Cloudy 14 -10 9 -13 79 79 ENE 5 7 30.3 1026 10 16.0934 N/A
4:55 am 04:55 Mostly Cloudy 14 -10 9 -13 79 79 ENE 5 7 30.3 1026 10 16.0934 N/A
5:15 am 05:15 Mostly Cloudy 14 -10 9 -13 79 79 ENE 5 7 30.3 1026 4 6.43736 N/A
5:35 am 05:35 Cloudy 14 -10 9 -13 79 79 ENE 3 6 30.3 1026 5 8.0467 N/A
5:55 am 05:55 Cloudy 14 -10 9 -13 79 79 ENE 3 6 30.27 1025 5 8.0467 N/A
6:15 am 06:15 Cloudy 14 -10 9 -13 79 79 Calm 30.3 1026 5 8.0467 N/A
6:35 am 06:35 Cloudy 14 -10 9 -13 79 79 NE 3 6 30.3 1026 5 8.0467 N/A
6:55 am 06:55 Cloudy 14 -10 9 -13 79 79 NNE 3 6 30.3 1026 5 8.0467 N/A
7:15 am 07:15 Cloudy 14 -10 9 -13 79 79 NNE 5 7 30.3 1026 7 11.26538 N/A
7:35 am 07:35 Cloudy 14 -10 9 -13 79 79 NNE 5 7 30.33 1027 5 8.0467 N/A
7:55 am 07:55 Cloudy 14 -10 9 -13 79 79 N 3 6 30.33 1027 4 6.43736 N/A
8:15 am 08:15 Cloudy 14 -10 9 -13 79 79 NNE 5 7 30.33 1027 5 8.0467 N/A
8:35 am 08:35 Cloudy 14 -10 9 -13 79 79 N 3 6 30.33 1027 3 4.82802 N/A
8:55 am 08:55 Cloudy 14 -10 9 -13 79 79 N 3 6 30.36 1028 4 6.43736 N/A
9:15 am 09:15 Cloudy 14 -10 9 -13 79 79 Calm 30.36 1028 2.5 4.02335 N/A
9:35 am 09:35 Mostly Cloudy 14 -10 9 -13 79 79 Calm 30.36 1028 4 6.43736 N/A
9:55 am 09:55 Partly Cloudy 16 -9 7 -14 67 67 Calm 30.36 1028 7 11.26538 N/A
10:15 am 10:15 Sunny 14 -10 7 -14 73 73 WNW 3 6 30.36 1028 10 16.0934 N/A
10:35 am 10:35 Sunny 14 -10 3 -16 62 62 N 7 11 30.39 1029 7 11.26538 N/A
10:55 am 10:55 Sunny 16 -9 5 -15 62 62 N 8 13 30.39 1029 10 16.0934 N/A
11:15 am 11:15 Sunny 16 -9 5 -15 62 62 N 9 15 30.39 1029 10 16.0934 N/A
11:35 am 11:35 Mostly Cloudy 16 -9 5 -15 62 62 N 8 13 30.39 1029 10 16.0934 N/A
11:55 am 11:55 Mostly Cloudy 16 -9 5 -15 62 62 N 6 9 30.39 1029 10 16.0934 N/A
12:15 pm 12:15 Sunny 16 -9 5 -15 62 62 N 3 6 30.39 1029 10 16.0934 N/A
12:35 pm 12:35 Partly Cloudy 18 -8 5 -15 58 58 N 5 7 30.39 1029 10 16.0934 N/A
12:55 pm 12:55 Partly Cloudy 18 -8 3 -16 53 53 NW 6 9 30.39 1029 10 16.0934 N/A
1:15 pm 13:15 Partly Cloudy 18 -8 5 -15 58 58 NNW 7 11 30.36 1028 10 16.0934 N/A
1:35 pm 13:35 Sunny 18 -8 3 -16 53 53 NNW 5 7 30.36 1028 10 16.0934 N/A
1:55 pm 13:55 Sunny 18 -8 3 -16 53 53 NNW 8 13 30.36 1028 10 16.0934 N/A
2:15 pm 14:15 Sunny 18 -8 3 -16 53 53 WNW 10 17 30.36 1028 10 16.0934 N/A
2:35 pm 14:35 Sunny 18 -8 3 -16 53 53 NW 7 11 30.39 1029 10 16.0934 N/A
2:55 pm 14:55 Sunny 18 -8 1 -17 49 49 WNW 7 11 30.39 1029 10 16.0934 N/A
3:15 pm 15:15 Sunny 18 -8 1 -17 49 49 NW 7 11 30.36 1028 10 16.0934 N/A
3:36 pm 15:36 Sunny 18 -8 3 -16 53 53 WNW 12 19 30.36 1028 10 16.0934 N/A
3:55 pm 15:55 Sunny 16 -9 1 -17 53 53 WNW 13 20 30.39 1029 10 16.0934 N/A
4:15 pm 16:15 Sunny 16 -9 1 -17 53 53 W 10 17 30.39 1029 10 16.0934 N/A
4:35 pm 16:35 Sunny 14 -10 1 -17 57 57 W 12 19 30.39 1029 10 16.0934 N/A
4:55 pm 16:55 Sunny 14 -10 1 -17 57 57 W 12 19 30.39 1029 10 16.0934 N/A
5:16 pm 17:16 Sunny 14 -10 3 -16 62 62 W 14 22 30.39 1029 10 16.0934 N/A
5:35 pm 17:35 Clear 14 -10 1 -17 57 57 W 12 19 30.39 1029 10 16.0934 N/A
5:55 pm 17:55 Clear 12 -11 1 -17 62 62 WNW 14 22 30.42 1030 10 16.0934 N/A
6:15 pm 18:15 Clear 10 -12 0 -18 61 61 WNW 10 17 30.42 1030 10 16.0934 N/A
6:35 pm 18:35 Clear 10 -12 0 -18 61 61 WNW 10 17 30.42 1030 10 16.0934 N/A
6:55 pm 18:55 Clear 10 -12 0 -18 61 61 WNW 12 19 30.42 1030 10 16.0934 N/A
7:15 pm 19:15 Clear 10 -12 0 -18 61 61 WNW 9 15 30.42 1030 10 16.0934 N/A
7:35 pm 19:35 Clear 10 -12 0 -18 61 61 W 13 20 30.42 1030 10 16.0934 N/A
7:55 pm 19:55 Clear 10 -12 0 -18 61 61 W 14 22 30.42 1030 10 16.0934 N/A
8:15 pm 20:15 Clear 10 -12 -2 -19 56 56 W 13 20 30.42 1030 10 16.0934 N/A
8:36 pm 20:36 Clear 10 -12 -2 -19 56 56 W 15 24 30.42 1030 10 16.0934 N/A
8:55 pm 20:55 Clear 10 -12 -2 -19 56 56 W 14 22 30.42 1030 10 16.0934 N/A
9:15 pm 21:15 Clear 10 -12 -2 -19 56 56 W 16 26 30.42 1030 10 16.0934 N/A
9:35 pm 21:35 Clear 10 -12 -2 -19 56 56 W 15 24 30.39 1029 10 16.0934 N/A
9:55 pm 21:55 Clear 10 -12 -2 -19 56 56 W 14 22 30.39 1029 10 16.0934 N/A
10:16 pm 22:16 Clear 12 -11 0 -18 57 57 W 13 20 30.39 1029 10 16.0934 N/A
10:35 pm 22:35 Clear 12 -11 0 -18 57 57 W 14 22 30.36 1028 10 16.0934 N/A
10:55 pm 22:55 Clear 12 -11 0 -18 57 57 W 15 24 30.39 1029 10 16.0934 N/A
11:15 pm 23:15 Clear 12 -11 0 -18 57 57 W 15 24 30.39 1029 10 16.0934 N/A
11:35 pm 23:35 Clear 12 -11 -2 -19 52 52 W 15 24 30.36 1028 10 16.0934 N/A
11:55 pm 23:55 Clear 12 -11 -2 -19 52 52 W 16 26 30.36 1028 10 16.0934 N/A

Powered by AerisWeather